SL-8 R/B

Satellite information

Favourite Embed

Satellite Type and Status

ROCKET BODYIN ORBIT

Key statistics

Satellite SL-8 R/B at a glance.

Uptime

15288

Days in orbit

Revolutions

≈ 13.8

Per day

Orbit

LEO

Low Earth Orbit

Inclination

82.9

Latest

Satellite identification and parameters

Extended collection of information and parameters for SL-8 R/B.

Object identification

Identified? True

Debris? False

Object name: SL-8 R/B

International designator: 1983-108B

Object number (NORAD): 14451

Object ID (CCSDS): 14451

Country: COMMONWEALTH OF INDEPENDENT STATES (CIS)

Current information (Y/N): Y

RCS size: LARGE

Orbital parameters

Period: 104.475 minutes

Inclination: 82.9249 deg

SMA: 7347.989 km

Apoapsis: 992.881 km

Periapsis: 946.826 km

RAAN: 92.9305 deg

Eccentricy: 0.00313383

Argument of periapsis: 316.8592 deg

Mean anomaly: 43.011 deg

Mean motion: 13.78319978 rev/day

Mean motion (dot): 0.00000213 rev/day2

B* drag term: 0.00019617107 1/REarth

Two-line elements (TLE)

Creation date: Sept. 3, 2025, 2:21 a.m.

Reference frame: TEME

Reference center: EARTH

Epoch: Sept. 2, 2025, 10:21 p.m. UTC

TLE line 0: 0 SL-8 R/B

TLE line 1: 1 14451U 83108B 25245.93135516 .00000213 00000-0 19617-3 0 9999

TLE line 2: 2 14451 82.9249 92.9305 0031338 316.8592 43.0110 13.78319978104102

Live tracking on map

Real-time ground track for satellite SL-8 R/B.

In-orbit conjunctions

A list of the most updated potential collisions computed for object SL-8 R/B.

Target Orbit TCA Probability of collision Miss distance Type
COSMOS 2251 DEB LEO 2025-04-18 20:25:21 0.0002201123 94.0 (m) DEBRIS
IRIDIUM 33 DEB LEO 2025-03-11 11:07:20 0.000149247 277.0 (m) DEBRIS
METEOR 2-20 DEB LEO 2025-02-26 01:26:58 0.0001508942 660.0 (m) DEBRIS

Associated space launch

Civilian navigation satellite equivalent to the purely military Parus

SL-8 R/B was lifted into orbit during the mission ‘Kosmos-3M | Tsikada 10’, on board a Kosmos-3M space rocket.

The launch took place on Oct. 26, 1983, 5:20 p.m. from 132/1 (132L).

For more information about the launch, click the button.

Launch to space Kosmos-3M | Tsikada 10
Kosmos-3M | Tsikada 10

Agency: N/A

Status: Launch Successful

Launch date: Oct. 26, 1983, 5:20 p.m. UTC

Rocket: Kosmos-3M

Launch pad: 132/1 (132L)

Location: Plesetsk Cosmodrome, Russian Federation

...

Latest news about this satellite

There are no fresh news available about this satellite. Check back as we update our databases every day.


Newsletter sign-up

Weekly statistics, charts and insights to help you stay on top of the space industry.